Regional Weather Roundup
Issued by NWS Charleston, SC

Current Version | Previous Version | Graphics & Text | Print | Product List | Glossary On
Versions: 1 2 3 4 5 6 7 8 9 10 11 12 13 14 15 16 17 18 19 20 21 22 23 24 25 26 27 28 29 30 31 32 33 34 35 36 37 38 39 40 41 42 43 44 45 46 47 48 49 50
000
ASUS42 KCHS 270510
RWRCHS
REGIONAL WEATHER ROUNDUP
NATIONAL WEATHER SERVICE CHARLESTON SC
1200 AM EST SAT DEC 27 2014

NOTE: "FAIR" INDICATES FEW OR NO CLOUDS BELOW 12,000 FEET WITH NO
SIGNIFICANT WEATHER AND/OR OBSTRUCTIONS TO VISIBILITY.

NOT ALL STATIONS ARE QUALITY CONTROLLED BY THE NATIONAL
WEATHER SERVICE. USE DATA WITH CAUTION...ESPECIALLY
DEWPOINT OBSERVATIONS.

SCZ027-030-031-034>040-042>050-270600-
...SOUTHEAST SOUTH CAROLINA...

CITY           SKY/WX    TMP DP  RH WIND       PRES   REMARKS
N CHARLESTON   PTCLDY    44  43  96 CALM      30.31F
WATERFRONT PRK   N/A     52 N/A N/A N3          N/A
MOUNT PLEASANT FAIR      41  41 100 CALM      30.31F
PINOPOLIS        N/A     52  48  87 CALM      30.24S
MONCKS CORNER  FAIR      41  39  93 CALM      30.32S FOG
SUMMERVILLE    FAIR      41  41 100 CALM      30.33R
BEAUFORT MCAS  CLEAR     44  42  93 NW5       30.31S
BEAUFORT ARPT  FAIR      46  46 100 CALM      30.30F FOG
HILTON HEAD IS CLEAR     46  46 100 MISG      30.31F FOG
WALTERBORO     CLEAR     39 N/A N/A CALM      30.33S
ALLENDALE      FAIR      39  39 100 CALM      30.32F

...SOUTHERN MIDLANDS AND PEE DEE...

CITY           SKY/WX    TMP DP  RH WIND       PRES   REMARKS
GEORGETOWN     NOT AVBL
KINGSTREE      NOT AVBL
ORANGEBURG     CLEAR     39  36  89 E3        30.33F
BARNWELL         N/A     37  37 100 CALM      30.32F
AIKEN          FAIR      36  36 100 CALM      30.34F
MANNING        FAIR      37 N/A N/A CALM      30.34S
COLUMBIA       CLEAR     36  33  89 CALM      30.32F
SUMTER         CLEAR     38  35  87 CALM      30.32F
FLORENCE       CLEAR     39  36  89 CALM      30.33S
MYRTLE BEACH   CLEAR     41  37  87 W3          N/A
N MYRTLE BEACH CLEAR     39  39 100 CALM      30.32S FOG

$$

GAZ063-065-086>088-099>101-113>116-118-119-134>141-150-270600-
...SOUTHEAST GEORGIA...

CITY           SKY/WX    TMP DP  RH WIND       PRES   REMARKS
SAVANNAH ARPT  MOCLDY    44  42  93 N3        30.31F
HUNTER AAF     CLEAR     45  45 100 NW2       30.28F
FORT STEWART   FAIR      43  41  94 CALM      30.29F
STATESBORO     CLEAR     37  37 100 CALM      30.31F
SYLVANIA       CLEAR     38  38 100 CALM      30.32F
CLAXTON        FAIR      39  39 100 CALM      30.31F

...CSRA...CENTRAL AND FAR SOUTHEAST GEORGIA...

CITY           SKY/WX    TMP DP  RH WIND       PRES   REMARKS
THOMSON        CLEAR     35  35 100 CALM      30.35F
AUGUSTA-BUSH   CLEAR     35  33  92 CALM      30.31F
AUGUSTA-DANIEL CLEAR     45  39  79 CALM      30.31F
SWAINSBORO     FAIR      39  39 100 CALM      30.32S
VIDALIA        CLEAR     45  41  87 CALM      30.30F
EASTMAN        FOG       37  37 100 CALM      30.33F VSB 3/4
HAZLEHURST     FAIR      44  44 100 CALM      30.29F
ALMA           CLEAR     42  40  92 CALM      30.30F
WAYCROSS       CLEAR     49  48  97 CALM      30.29F
JESUP          FAIR      48  46  93 CALM      30.29F
BAXLEY         FAIR      45  43  93 CALM      30.30S
BRUNSWICK      CLEAR     50  46  87 CALM      30.29F
SAINT SIMONS   CLOUDY    57  50  77 N7        30.28F

$$

SCZ027-028-034-036>038-045-046-048>050-GAZ119-141-270600-
...LAKE AND SUPPLEMENTAL COASTAL OBSERVATIONS...

STATION/POSITION TIME  TEMP    WIND        PRES    WAVE   SWELL
                       AIR SEA DIR/SP/G            HT/PER HT/PER/DIR
                 (UTC) (F)     (DEG/KT/KT) (MB)    (FT/S) (FT/S/D)
UPR LAKE MARION  NOT AVBL
WINYAH BAY       0400   44     320/  3     1026.0S
LAKE MURRAY      0400   43        CALM     1026.8R
ACE BASIN NERRS  0400   45        CALM     1026.0S
FORT PULASKI     0500   51 56  340/  2/  3 1026.3F
SAPELO ISLAND    0400   49      20/  5     1026.0S

$$

ANZ835-935-AMZ111-154-330-350-352-354-370-450-454-472-270600-
...C-MAN AND BUOY OBSERVATIONS...

STATION/POSITION TIME  TEMP    WIND        PRES    WAVE   SWELL
                       AIR SEA DIR/SP/G            HT/PER HT/PER/DIR
                 (UTC) (F)     (DEG/KT/KT) (MB)    (FT/S) (FT/S/D)
BUOY 41004       0500   63 74   20/ 10/ 14 1025.2F   2/ 8   2/ 8
BUOY 41008       0500   59 59   30/ 10/ 12 1025.1F   2/ 4   2/110/ 6
FOLLY BEACH CMAN 0400   54      30/  5/  6 1026.9F
CAPERS NEARSHORE 0400   55      70/  6/  8   N/A
FRIPP NEARSHORE  NOT AVBL


STATION/POSITION TIME  TEMP    WIND        PRES    WAVE   SWELL
                       AIR SEA DIR/SP/G            HT/PER HT/PER/DIR
                 (UTC) (F)     (DEG/KT/KT) (MB)    (FT/S) (FT/S/D)
5E ST. MARYS GA  0500      61                N/A     3/ 5
FRYING PAN BUOY  0500   60 69   30/  6/  8 1026.6F   2/ 7   2/150/ 7
BUOY 41025       0500   55                 1026.7F   2/13
CAPE LOOKOUT NC  0400   53      40/  2/  2 1026.8F
BUOY 41002       0354   67 74   70/  8/ 12 1026.0F   3/12   3/ 60/12
BUOY 41010       0500   73 76   70/ 12/ 14 1023.1F   3/ 9   2/ 80/ 9
ST AUGUSTINE FL  0500   62     360/ 13/ 14 1024.4F


$$


USA.gov is the U.S. government's official web portal to all federal, state and local government web resources and services.